Location: Val-d'Or
(48.1170°N, 77.7670°W)
Time: 04:05:30
(UTC-04:00)

N. Korean satellite - Visible Passes

Search period start: 20 October 2018 00:00
Search period end: 30 October 2018 00:00
Orbit: 459 x 510 km, 97.2° (Epoch: 19 October)

Date Brightness Start Highest point End Pass type
(mag) Time Alt. Az. Time Alt. Az. Time Alt. Az.
20 Oct 9.8 19:40:17 10° SW 19:42:58 18° W 19:45:39 10° NW visible
21 Oct 9.0 07:02:41 10° NNE 07:05:57 29° E 07:09:08 10° SSE visible
21 Oct 8.7 19:14:58 10° SSW 19:18:23 33° W 19:21:49 10° NNW visible
22 Oct 10.0 06:38:59 10° NE 06:41:20 16° E 06:43:39 10° SE visible
22 Oct 7.2 18:50:10 10° S 18:53:52 64° WSW 18:57:37 10° NNW visible
23 Oct 10.4 20:02:07 10° WSW 20:03:20 11° W 20:04:33 10° WNW visible
24 Oct 9.6 19:35:49 10° SW 19:38:40 20° W 19:41:31 10° NW visible
25 Oct 9.2 06:58:31 10° NE 07:01:37 26° E 07:04:40 10° SSE visible
25 Oct 8.4 19:10:36 10° SSW 19:14:05 37° W 19:17:36 10° NNW visible
26 Oct 10.1 06:34:55 10° NE 06:36:59 14° E 06:39:01 10° SE visible
26 Oct 7.0 18:45:52 10° S 18:49:35 72° W 18:53:20 10° NNW visible
27 Oct 10.3 19:57:21 10° WSW 19:58:59 12° W 20:00:37 10° WNW visible
28 Oct 9.4 19:31:21 10° SSW 19:34:19 22° W 19:37:18 10° NW visible
29 Oct 9.4 06:54:18 10° NE 06:57:15 24° E 07:00:09 10° SSE visible
29 Oct 8.2 19:06:12 10° S 19:09:45 41° W 19:13:18 10° NNW visible
